Regional Weather Roundup
Issued by NWS

Home | Current Version | Previous Version | Text Only | Print | Product List | Glossary On
Versions: 1 2 3 4 5 6 7 8 9 10 11 12 13 14 15 16 17 18 19 20 21 22 23 24 25 26 27 28 29 30 31 32 33 34 35 36 37 38 39 40 41 42 43 44 45 46 47 48 49 50
000
ASUS43 KLMK 232210
RWRKY
KENTUCKY REGIONAL WEATHER ROUNDUP
NATIONAL WEATHER SERVICE LOUISVILLE KY
600 PM EDT TUE AUG 23 2016

NOTE "FAIR" INDICATES FEW OR NO CLOUDS BELOW 12,000 FEET
WITH NO SIGNIFICANT WEATHER AND/OR OBSTRUCTIONS TO VISIBILITY.

KYZ001>023-026-027-061>063-070>075-232300-
WESTERN AND SOUTH CENTRAL KENTUCKY

CITY           SKY/WX    TMP DP  RH WIND       PRES   REMARKS
PADUCAH        CLOUDY    83  72  69 S8        30.16F
HENDERSON      CLOUDY    81  64  57 SE3       30.17S
OWENSBORO      CLOUDY    82  68  62 SW5       30.19F
HOPKINSVILLE   CLOUDY    82  70  66 VRB1      30.18F
BOWLING GREEN  PTSUNNY   84  64  50 VRB3      30.20F
GLASGOW        MOSUNNY   82  63  52 CALM      30.22S
$$

KYZ024-025-028>034-038-045-046-053-232300-
NORTH CENTRAL KENTUCKY

CITY           SKY/WX    TMP DP  RH WIND       PRES   REMARKS
LOUISVILLE/SDF PTSUNNY   82  59  45 S8        30.21R
LOUISVILLE/LOU MOSUNNY   83  59  44 SW5       30.21S
FORT KNOX      MOSUNNY   80  63  55 S1        30.20S
$$

KYZ035>037-039>044-047>052-055>060-089>105-232300-
NORTHEAST KENTUCKY

CITY           SKY/WX    TMP DP  RH WIND       PRES   REMARKS
LEXINGTON      SUNNY     82  59  45 VRB3      30.23F
COVINGTON      PTSUNNY   81  61  50 S8        30.22F
FRANKFORT      SUNNY     82  58  43 SW5       30.21F
$$

KYZ054-064>069-076>088-106>120-232300-
SOUTHEAST KENTUCKY

CITY           SKY/WX    TMP DP  RH WIND       PRES   REMARKS
JACKSON        SUNNY     80  60  50 CALM      30.26S
LONDON         SUNNY     81  57  43 W6        30.25S
SOMERSET       MOSUNNY   82  59  44 CALM      30.24S
MIDDLESBORO    PTSUNNY   84  61  44 W5        30.24S
MONTICELLO     PTCLDY   N/A N/A N/A W14       30.25R
$$




USA.gov is the U.S. government's official web portal to all federal, state and local government web resources and services.